GW0066 Weather Reports


time (UTC)temp
C
wind
direction
speed
KPH
gust
KPH
rain 1hr
cm
rain 24hr
cm
rain mn
cm
humidity
%
barometer
mb
20260510071837 12 116 0.0 0.0 0.00 0.00 0.00 95 1010.6
20260510071338 12 117 0.0 0.0 0.00 0.00 0.00 95 1010.3
20260510070837 12 104 0.0 0.0 0.00 0.00 0.00 95 1010.4
20260510070338 12 102 0.0 0.0 0.00 0.00 0.00 95 1010.1
20260510065838 12 100 0.0 0.0 0.00 0.00 0.00 95 1010.1
20260510065339 12 109 0.0 0.0 0.00 0.00 0.00 95 1010.1
20260510064838 12 109 0.0 0.0 0.00 0.00 0.00 94 1010.0
20260510064338 12 109 0.0 0.0 0.00 0.00 0.00 94 1010.0
20260510063837 12 112 0.0 0.0 0.00 0.00 0.00 94 1009.7
20260510063338 12 113 0.0 0.0 0.00 0.00 0.00 94 1010.0
20260510062838 12 116 0.0 0.0 0.00 0.00 0.00 93 1010.0
20260510062337 12 116 0.0 0.0 0.00 0.00 0.00 93 1009.8
20260510061838 13 115 0.0 0.0 0.00 0.00 0.00 93 1009.7
20260510061338 13 106 0.0 0.0 0.00 0.00 0.00 93 1009.9
20260510060837 13 122 0.0 0.0 0.00 0.00 0.00 93 1009.8
20260510060338 13 121 0.0 0.0 0.00 0.00 0.00 92 1009.9
20260510055837 13 123 0.0 0.0 0.00 0.00 0.00 92 1009.7
20260510055337 13 120 0.0 0.0 0.00 0.00 0.00 91 1009.9
20260510054838 13 120 0.0 0.0 0.00 0.00 0.00 91 1010.0
20260510054338 13 120 0.0 0.0 0.00 0.00 0.00 90 1009.7
20260510053837 13 118 0.0 0.0 0.00 0.00 0.00 90 1009.8
20260510053337 13 121 0.0 0.0 0.00 0.00 0.00 89 1010.0
20260510052837 14 114 0.0 0.0 0.00 0.00 0.00 89 1010.0
20260510052337 14 92 0.0 0.0 0.00 0.00 0.00 88 1010.1
20260510051838 14 115 0.0 0.0 0.00 0.00 0.00 87 1010.0
20260510051337 14 105 0.0 0.0 0.00 0.00 0.00 87 1010.0
20260510050837 15 98 0.0 0.0 0.00 0.00 0.00 86 1010.0
20260510050338 15 85 0.0 1.6 0.00 0.00 0.00 87 1010.1
20260510045837 14 71 0.0 0.0 0.00 0.00 0.00 87 1010.1
20260510045337 14 118 0.0 0.0 0.00 0.00 0.00 87 1010.0
20260510044838 14 123 0.0 0.0 0.00 0.00 0.00 87 1010.1
20260510044338 14 119 0.0 0.0 0.00 0.00 0.00 86 1009.9
20260510043838 15 119 0.0 0.0 0.00 0.00 0.00 85 1010.0
20260510043337 15 113 0.0 0.0 0.00 0.00 0.00 85 1009.9
20260510042838 15 119 0.0 0.0 0.00 0.00 0.00 85 1009.7
20260510042338 15 122 0.0 0.0 0.00 0.00 0.00 84 1009.8
20260510041837 15 122 0.0 0.0 0.00 0.00 0.00 84 1009.8
20260510041338 15 123 0.0 0.0 0.00 0.00 0.00 84 1009.8
20260510040837 15 125 0.0 0.0 0.00 0.00 0.00 84 1009.9
20260510040337 15 124 0.0 0.0 0.00 0.00 0.00 84 1010.0
20260510035838 15 123 0.0 0.0 0.00 0.00 0.00 84 1009.9
20260510035337 15 119 0.0 0.0 0.00 0.00 0.00 83 1009.7
20260510034838 15 117 0.0 0.0 0.00 0.00 0.00 83 1009.9
20260510034337 15 113 0.0 0.0 0.00 0.00 0.00 83 1009.9
20260510033837 15 116 0.0 0.0 0.00 0.00 0.00 82 1009.7
20260510033338 15 117 0.0 0.0 0.00 0.00 0.00 82 1009.8
20260510032838 16 117 0.0 0.0 0.00 0.00 0.00 81 1009.4
20260510032338 16 117 0.0 0.0 0.00 0.00 0.00 81 1009.6
20260510031837 16 121 0.0 0.0 0.00 0.00 0.00 81 1009.7
20260510031338 16 117 0.0 0.0 0.00 0.00 0.00 80 1009.8
20260510030838 16 115 0.0 0.0 0.00 0.00 0.00 80 1009.8
20260510030338 16 117 0.0 0.0 0.00 0.00 0.00 79 1009.8
20260510025838 16 117 0.0 0.0 0.00 0.00 0.00 79 1009.8
20260510025338 16 118 0.0 0.0 0.00 0.00 0.00 79 1009.8
20260510024837 16 116 0.0 0.0 0.00 0.00 0.00 78 1009.8
20260510024337 16 117 0.0 0.0 0.00 0.00 0.00 78 1009.6
20260510023837 16 116 0.0 0.0 0.00 0.00 0.00 77 1009.5
20260510023337 16 115 0.0 0.0 0.00 0.00 0.00 77 1009.6
20260510022837 17 117 0.0 0.0 0.00 0.00 0.00 76 1009.4
20260510022337 17 119 0.0 0.0 0.00 0.00 0.00 76 1009.3
20260510021838 17 116 0.0 0.0 0.00 0.00 0.00 75 1009.5
20260510021338 17 117 0.0 0.0 0.00 0.00 0.00 75 1009.4
20260510020837 17 117 0.0 0.0 0.00 0.00 0.00 75 1009.3
20260510020338 17 117 0.0 0.0 0.00 0.00 0.00 75 1009.3
20260510015838 17 117 0.0 0.0 0.00 0.00 0.00 75 1009.3
20260510015338 17 117 0.0 0.0 0.00 0.00 0.00 75 1009.2
20260510014838 17 117 0.0 0.0 0.00 0.00 0.00 75 1009.0
20260510014337 17 117 0.0 0.0 0.00 0.00 0.00 75 1009.0
20260510013837 17 117 0.0 0.0 0.00 0.00 0.00 75 1008.9
20260510013337 17 112 0.0 0.0 0.00 0.00 0.00 75 1008.9
20260510012838 17 117 0.0 0.0 0.00 0.00 0.00 75 1008.9
20260510012338 17 117 0.0 0.0 0.00 0.00 0.00 74 1008.7
20260510011837 17 117 0.0 0.0 0.00 0.00 0.00 74 1008.7
20260510011337 17 117 0.0 0.0 0.00 0.00 0.00 73 1008.5
20260510010838 17 117 0.0 0.0 0.00 0.00 0.00 73 1008.4
20260510010337 17 117 0.0 0.0 0.00 0.00 0.00 72 1008.6
20260510005838 18 117 0.0 0.0 0.00 0.00 0.00 71 1008.6
20260510005338 18 117 0.0 0.0 0.00 0.00 0.00 70 1008.5
20260510004837 18 117 0.0 0.0 0.00 0.00 0.00 69 1008.4
20260510004338 18 117 0.0 0.0 0.00 0.00 0.00 69 1008.3
20260510003837 18 117 0.0 0.0 0.00 0.00 0.00 68 1008.1
20260510003338 18 117 0.0 0.0 0.00 0.00 0.00 67 1008.2
20260510002837 19 117 0.0 0.0 0.00 0.00 0.00 66 1008.3
20260510002337 19 116 0.0 0.0 0.00 0.00 0.00 65 1008.3
20260510001837 20 111 0.0 0.0 0.00 0.00 0.00 65 1008.2
20260510001337 20 117 0.0 0.0 0.00 0.00 0.00 64 1008.3
20260510000838 20 117 0.0 0.0 0.00 0.00 0.00 63 1008.3
20260510000337 20 116 0.0 0.0 0.00 0.00 0.00 62 1007.9
20260509235838 21 116 0.0 0.0 0.00 0.00 0.00 61 1007.9
20260509235338 21 117 0.0 0.0 0.00 0.00 0.00 60 1008.1
20260509234838 21 119 0.0 0.0 0.00 0.00 0.00 59 1008.2
20260509234338 21 115 0.0 0.0 0.00 0.00 0.00 59 1007.9
20260509233837 21 110 0.0 0.0 0.00 0.00 0.00 58 1007.9
20260509233337 22 118 0.0 0.0 0.00 0.00 0.00 56 1007.9
20260509232838 22 117 0.0 0.0 0.00 0.00 0.00 55 1008.1
20260509232337 22 97 0.0 0.0 0.00 0.00 0.00 54 1007.8
20260509231837 22 131 0.0 0.0 0.00 0.00 0.00 53 1007.8
20260509231338 22 120 0.0 0.0 0.00 0.00 0.00 52 1007.9
20260509230838 22 138 1.6 1.6 0.00 0.00 0.00 52 1007.9
20260509230337 22 118 0.0 0.0 0.00 0.00 0.00 52 1007.9
20260509225838 22 125 0.0 0.0 0.00 0.00 0.00 51 1007.8
20260509225338 23 132 0.0 1.6 0.00 0.00 0.00 50 1007.8
20260509224838 23 119 0.0 0.0 0.00 0.00 0.00 50 1007.9
20260509224337 23 70 0.0 0.0 0.00 0.00 0.00 48 1007.9
20260509223837 24 133 1.6 1.6 0.00 0.00 0.00 46 1008.1
20260509223438 25 107 0.0 1.6 0.00 0.00 0.00 43 1007.8
20260509222838 25 114 1.6 1.6 0.00 0.00 0.00 41 1007.8
20260509222338 24 84 0.0 0.0 0.00 0.00 0.00 44 1007.8
20260509221838 23 126 0.0 0.0 0.00 0.00 0.00 45 1007.9
20260509221337 23 109 1.6 3.2 0.00 0.00 0.00 45 1007.9
20260509220838 23 162 0.0 0.0 0.00 0.00 0.00 45 1008.1
20260509220338 23 143 3.2 3.2 0.00 0.00 0.00 45 1008.0
20260509215838 23 73 0.0 1.6 0.00 0.00 0.00 45 1008.0
20260509215338 25 138 3.2 3.2 0.00 0.00 0.00 43 1007.9
20260509214838 26 47 1.6 3.2 0.00 0.00 0.00 42 1007.7
20260509214338 26 150 1.6 3.2 0.00 0.00 0.00 44 1007.6
20260509213838 25 86 1.6 3.2 0.00 0.00 0.00 45 1007.8
20260509213337 24 102 0.0 0.0 0.00 0.00 0.00 46 1007.9
20260509212838 24 129 1.6 1.6 0.00 0.00 0.00 48 1007.7
20260509212337 24 85 3.2 4.8 0.00 0.00 0.00 46 1007.7
20260509211838 23 80 1.6 3.2 0.00 0.00 0.00 47 1007.6
20260509211338 24 81 0.0 1.6 0.00 0.00 0.00 47 1007.8
20260509210838 25 10 0.0 3.2 0.00 0.00 0.00 44 1007.7
20260509210338 25 94 3.2 3.2 0.00 0.00 0.00 43 1007.8
20260509205838 25 115 0.0 0.0 0.00 0.00 0.00 46 1007.9
20260509205337 25 135 0.0 0.0 0.00 0.00 0.00 51 1007.6
20260509204838 24 148 1.6 3.2 0.00 0.00 0.00 50 1007.6
20260509204337 24 33 3.2 4.8 0.00 0.00 0.00 49 1007.8
20260509203837 24 64 1.6 1.6 0.00 0.00 0.00 50 1007.8
20260509203337 24 63 1.6 1.6 0.00 0.00 0.00 48 1007.5
20260509202837 24 109 1.6 1.6 0.00 0.00 0.00 48 1007.8
20260509202337 25 140 1.6 1.6 0.00 0.00 0.00 50 1007.5
20260509201838 24 208 1.6 3.2 0.00 0.00 0.00 49 1007.6
20260509201338 24 119 3.2 3.2 0.00 0.00 0.00 48 1007.7
20260509200838 24 66 1.6 1.6 0.00 0.00 0.00 51 1007.7
20260509200338 23 121 0.0 1.6 0.00 0.00 0.00 52 1008.0
20260509195838 23 161 1.6 3.2 0.00 0.00 0.00 51 1008.2
20260509195337 23 78 3.2 3.2 0.00 0.00 0.00 51 1008.2
20260509194837 23 97 1.6 3.2 0.00 0.00 0.00 52 1008.1
20260509194338 23 23 3.2 3.2 0.00 0.00 0.00 50 1008.2
20260509193837 23 359 3.2 3.2 0.00 0.00 0.00 51 1008.2
20260509193338 23 18 3.2 3.2 0.00 0.00 0.00 50 1008.1
20260509192838 23 237 1.6 1.6 0.00 0.00 0.00 52 1008.6
20260509192338 22 72 3.2 3.2 0.00 0.00 0.00 51 1008.7
20260509191837 22 79 1.6 3.2 0.00 0.00 0.00 53 1008.6
20260509191338 21 131 1.6 1.6 0.00 0.00 0.00 55 1008.8
20260509190837 21 143 0.0 0.0 0.00 0.00 0.00 56 1008.9
20260509190338 21 228 1.6 3.2 0.00 0.00 0.00 55 1009.0
20260509185837 21 51 1.6 1.6 0.00 0.00 0.00 57 1008.9
20260509185338 21 86 1.6 3.2 0.00 0.00 0.00 56 1008.8
20260509184837 22 82 3.2 4.8 0.00 0.00 0.00 54 1009.0
20260509184338 22 111 3.2 3.2 0.00 0.00 0.00 55 1008.8
20260509183838 21 125 0.0 0.0 0.00 0.00 0.00 55 1008.8
20260509183338 21 112 1.6 1.6 0.00 0.00 0.00 57 1008.6
20260509182838 21 119 0.0 0.0 0.00 0.00 0.00 58 1008.8
20260509182337 21 93 1.6 1.6 0.00 0.00 0.00 55 1009.2
20260509181838 21 142 0.0 0.0 0.00 0.00 0.00 56 1009.3
20260509181338 21 26 1.6 4.8 0.00 0.00 0.00 56 1009.1
20260509180838 20 113 1.6 1.6 0.00 0.00 0.00 56 1009.4
20260509180337 20 137 1.6 1.6 0.00 0.00 0.00 56 1009.5
20260509175838 20 246 3.2 4.8 0.00 0.00 0.00 56 1009.9
20260509175337 20 128 0.0 0.0 0.00 0.00 0.00 57 1009.8
20260509174838 20 69 4.8 4.8 0.00 0.00 0.00 57 1009.9
20260509174338 20 123 0.0 0.0 0.00 0.00 0.00 57 1010.0
20260509173837 21 120 0.0 0.0 0.00 0.00 0.00 57 1009.9
20260509173337 21 115 1.6 1.6 0.00 0.00 0.00 56 1009.9
20260509172838 21 123 1.6 1.6 0.00 0.00 0.00 56 1009.9
20260509172338 21 123 0.0 0.0 0.00 0.00 0.00 55 1009.8
20260509171838 21 116 0.0 0.0 0.00 0.00 0.00 55 1009.7
20260509171337 21 108 3.2 4.8 0.00 0.00 0.00 54 1010.0
20260509170838 22 245 3.2 4.8 0.00 0.00 0.00 53 1009.9
20260509170338 21 117 1.6 3.2 0.00 0.00 0.00 54 1009.6
20260509165838 21 74 3.2 4.8 0.00 0.00 0.00 54 1010.0
20260509165338 20 211 3.2 4.8 0.00 0.00 0.00 57 1010.0
20260509164838 20 148 0.0 0.0 0.00 0.00 0.00 57 1010.0
20260509164338 20 146 1.6 1.6 0.00 0.00 0.00 57 1010.4
20260509163838 20 58 3.2 6.4 0.00 0.00 0.00 58 1010.0
20260509163337 20 80 6.4 9.7 0.00 0.00 0.00 56 1010.1
20260509162837 20 289 0.0 0.0 0.00 0.00 0.00 59 1010.0
20260509162338 20 77 8.0 11.3 0.00 0.00 0.00 57 1010.2
20260509161837 20 92 3.2 4.8 0.00 0.00 0.00 57 1010.1
20260509161337 20 169 0.0 1.6 0.00 0.00 0.00 59 1009.9
20260509160838 20 119 3.2 4.8 0.00 0.00 0.00 58 1010.0
20260509160338 20 68 1.6 1.6 0.00 0.00 0.00 58 1010.0
20260509155838 20 58 1.6 1.6 0.00 0.00 0.00 56 1010.1
20260509155338 20 96 3.2 4.8 0.00 0.00 0.00 56 1010.2
20260509154837 20 81 1.6 3.2 0.00 0.00 0.00 58 1010.2
20260509154337 20 72 6.4 9.7 0.00 0.00 0.00 57 1010.2
20260509153837 20 88 6.4 9.7 0.00 0.00 0.00 56 1010.3
20260509153337 20 79 3.2 3.2 0.00 0.00 0.00 57 1010.4
20260509152838 20 133 0.0 0.0 0.00 0.00 0.00 57 1010.3
20260509152338 20 150 3.2 4.8 0.00 0.00 0.00 56 1010.4
20260509151837 20 73 3.2 4.8 0.00 0.00 0.00 54 1010.7
20260509151338 20 192 3.2 4.8 0.00 0.00 0.00 56 1010.5
20260509150838 19 117 3.2 3.2 0.00 0.00 0.00 57 1010.4
20260509150338 19 165 3.2 3.2 0.00 0.00 0.00 57 1010.7
20260509145837 19 117 3.2 4.8 0.00 0.00 0.00 55 1010.6
20260509145337 19 126 3.2 3.2 0.00 0.00 0.00 57 1010.5
20260509144838 18 86 1.6 3.2 0.00 0.00 0.00 57 1010.8
20260509144337 18 88 0.0 1.6 0.00 0.00 0.00 59 1010.7
20260509143838 17 89 1.6 1.6 0.00 0.00 0.00 60 1010.8
20260509143338 17 121 1.6 3.2 0.00 0.00 0.00 61 1010.9
20260509142838 17 119 1.6 1.6 0.00 0.00 0.00 63 1010.8
20260509142338 17 99 3.2 4.8 0.00 0.00 0.00 62 1010.8
20260509141837 16 114 0.0 0.0 0.00 0.00 0.00 63 1010.9
20260509141337 16 165 0.0 0.0 0.00 0.00 0.00 64 1010.9
20260509140838 16 128 1.6 1.6 0.00 0.00 0.00 65 1011.0
20260509140338 16 96 0.0 0.0 0.00 0.00 0.00 64 1011.2
20260509135838 15 91 4.8 4.8 0.00 0.00 0.00 64 1011.1
20260509135337 15 93 3.2 4.8 0.00 0.00 0.00 65 1011.2
20260509134838 15 105 1.6 1.6 0.00 0.00 0.00 65 1011.1
20260509134338 15 86 1.6 1.6 0.00 0.00 0.00 66 1011.0
20260509133838 15 111 1.6 1.6 0.00 0.00 0.00 67 1011.1
20260509133338 15 139 0.0 0.0 0.00 0.00 0.00 66 1011.1
20260509132838 15 134 0.0 1.6 0.00 0.00 0.00 66 1011.2
20260509132338 14 167 1.6 3.2 0.00 0.00 0.00 67 1011.1
20260509131838 14 83 1.6 1.6 0.00 0.00 0.00 66 1011.3
20260509131337 14 116 0.0 0.0 0.00 0.00 0.00 67 1011.1
20260509130838 14 93 0.0 0.0 0.00 0.00 0.00 66 1011.0
20260509130337 14 115 3.2 3.2 0.00 0.00 0.00 66 1011.1
20260509125838 14 61 1.6 1.6 0.00 0.00 0.00 66 1011.0
20260509125338 14 115 0.0 0.0 0.00 0.00 0.00 66 1011.0
20260509124837 14 129 0.0 1.6 0.00 0.00 0.00 66 1011.2
20260509124337 14 68 0.0 0.0 0.00 0.00 0.00 66 1011.2
20260509123838 14 118 0.0 0.0 0.00 0.00 0.00 65 1010.9
20260509123337 14 104 0.0 1.6 0.00 0.00 0.00 65 1011.2
20260509122837 14 47 1.6 6.4 0.00 0.00 0.00 64 1011.0
20260509122338 14 77 0.0 1.6 0.00 0.00 0.00 65 1011.1
20260509121838 14 85 0.0 1.6 0.00 0.00 0.00 63 1011.1
20260509121337 14 82 0.0 0.0 0.00 0.00 0.00 65 1011.1
20260509120837 14 126 0.0 0.0 0.00 0.00 0.00 63 1011.1
20260509120337 14 84 1.6 3.2 0.00 0.00 0.00 63 1010.9
20260509115837 14 132 0.0 0.0 0.00 0.00 0.00 63 1010.7
20260509115338 14 96 0.0 1.6 0.00 0.00 0.00 62 1011.0
20260509114838 14 95 3.2 4.8 0.00 0.00 0.00 61 1011.0
20260509114338 14 102 0.0 1.6 0.00 0.00 0.00 61 1011.1
20260509113838 14 156 0.0 0.0 0.00 0.00 0.00 61 1011.1
20260509113338 14 86 0.0 1.6 0.00 0.00 0.00 60 1011.1
20260509112838 14 59 1.6 3.2 0.00 0.00 0.00 59 1010.8
20260509112337 14 126 1.6 1.6 0.00 0.00 0.00 60 1010.8
20260509111837 14 41 1.6 3.2 0.00 0.00 0.00 58 1010.8
20260509111337 14 95 0.0 0.0 0.00 0.00 0.00 58 1010.9
20260509110837 14 112 0.0 1.6 0.00 0.00 0.00 57 1010.8
20260509110337 14 127 0.0 1.6 0.00 0.00 0.00 58 1010.7
20260509105837 14 102 0.0 0.0 0.00 0.00 0.00 57 1010.7
20260509105337 14 98 1.6 3.2 0.00 0.00 0.00 57 1010.8
20260509104838 14 122 1.6 3.2 0.00 0.00 0.00 57 1010.5
20260509104338 14 51 1.6 1.6 0.00 0.00 0.00 57 1010.8
20260509103838 14 120 0.0 0.0 0.00 0.00 0.00 57 1010.7
20260509103337 14 103 0.0 1.6 0.00 0.00 0.00 57 1010.6
20260509102837 14 84 1.6 1.6 0.00 0.00 0.00 57 1010.6
20260509102338 14 120 0.0 1.6 0.00 0.00 0.00 57 1010.8
20260509101838 14 107 0.0 0.0 0.00 0.00 0.00 57 1010.7
20260509101337 14 113 0.0 1.6 0.00 0.00 0.00 57 1010.5
20260509100838 14 135 0.0 0.0 0.00 0.00 0.00 57 1010.6
20260509100339 14 121 0.0 0.0 0.00 0.00 0.00 57 1010.5
20260509095838 14 119 1.6 1.6 0.00 0.00 0.00 56 1010.3
20260509095338 14 119 0.0 0.0 0.00 0.00 0.00 56 1010.5
20260509094838 14 141 0.0 1.6 0.00 0.00 0.00 56 1010.5
20260509094338 14 93 0.0 1.6 0.00 0.00 0.00 56 1010.2
20260509093837 14 123 3.2 3.2 0.00 0.00 0.00 56 1010.3
20260509093338 14 81 0.0 1.6 0.00 0.00 0.00 56 1010.4
20260509092837 14 111 1.6 1.6 0.00 0.00 0.00 56 1010.6
20260509092338 14 167 0.0 1.6 0.00 0.00 0.00 56 1010.7
20260509091837 14 89 0.0 1.6 0.00 0.00 0.00 56 1010.7
20260509091337 14 91 1.6 1.6 0.00 0.00 0.00 56 1010.7
20260509090838 14 114 0.0 1.6 0.00 0.00 0.00 56 1010.9
20260509090337 13 89 0.0 3.2 0.00 0.00 0.00 57 1011.1
20260509085837 13 117 0.0 0.0 0.00 0.00 0.00 58 1010.9
20260509085337 13 112 0.0 0.0 0.00 0.00 0.00 58 1010.8
20260509084838 13 113 0.0 0.0 0.00 0.00 0.00 58 1010.9
20260509084337 13 111 0.0 0.0 0.00 0.00 0.00 58 1011.0
20260509083837 13 126 1.6 3.2 0.00 0.00 0.00 58 1010.9
20260509083338 13 89 3.2 4.8 0.00 0.00 0.00 59 1011.0
20260509082837 13 110 1.6 1.6 0.00 0.00 0.00 59 1010.9
20260509082337 13 80 1.6 1.6 0.00 0.00 0.00 59 1011.0
20260509081837 13 133 0.0 1.6 0.00 0.00 0.00 60 1010.9
20260509081338 13 137 3.2 6.4 0.00 0.00 0.00 59 1011.0
20260509080838 13 187 1.6 3.2 0.00 0.00 0.00 60 1011.1
20260509080337 13 104 1.6 1.6 0.00 0.00 0.00 60 1011.3
20260509075837 13 78 1.6 3.2 0.00 0.00 0.00 60 1011.2
20260509075338 13 118 0.0 1.6 0.00 0.00 0.00 60 1011.3
20260509074837 13 98 4.8 4.8 0.00 0.00 0.00 60 1011.2
20260509074338 13 92 1.6 3.2 0.00 0.00 0.00 60 1011.1
20260509073837 13 118 1.6 3.2 0.00 0.00 0.00 60 1011.4
20260509073338 13 85 1.6 3.2 0.00 0.00 0.00 60 1011.5
20260509072838 13 102 1.6 3.2 0.00 0.00 0.00 60 1011.4
20260509072338 13 129 1.6 3.2 0.00 0.00 0.00 60 1011.2